Location: Champseau
(45.8333°N, 1.7667°E)
Time: 18:14:41
(UTC+00:00)

Cosmos 2227 Rocket - Pass Details

Date: 18 April 2021
Orbit: 840 x 844 km, 71.0° (Epoch: 12 May)

Event Time Altitude Azimuth Distance (km) Brightness Sun altitude
Exits shadow 21:38:51 39° 215° (SW) 1,242 2.9 -25.6°
Maximum altitude 21:41:03 80° 296° (WNW) 861 2.2 -25.9°
Drops below altitude 10° 21:46:44 10° 24° (NNE) 2,471 5.0 -26.4°
Sets 21:49:11 0° 26° (NNE) 3,409 5.7 -26.7°
